Location: Newark
(35.0317°N, 117.3481°W)
Time: 20:00:26
(UTC+00:00)

Hubble Space Telescope - Visible Passes

Search period start: 21 March 2019 00:00
Search period end: 31 March 2019 00:00
Orbit: 537 x 540 km, 28.5° (Epoch: 21 March)

Date Brightness Start Highest point End Pass type
(mag) Time Alt. Az. Time Alt. Az. Time Alt. Az.
24 Mar 3.0 02:45:30 10° S 02:46:38 11° SSE 02:47:46 10° SE visible
25 Mar 2.9 02:33:57 10° S 02:36:02 14° SSE 02:38:06 10° SE visible
25 Mar 3.1 04:13:07 10° SW 04:14:11 16° SW 04:14:11 16° SW visible
26 Mar 2.6 04:02:29 10° SW 04:04:31 23° SSW 04:04:31 23° SSW visible
27 Mar 2.0 03:51:54 10° WSW 03:54:48 29° SSW 03:54:48 29° SSW visible
28 Mar 1.7 03:41:19 10° WSW 03:45:02 33° S 03:45:02 33° S visible
29 Mar 1.7 03:30:47 10° WSW 03:34:30 33° S 03:35:13 30° SSE visible
30 Mar 1.8 03:20:15 10° WSW 03:23:58 32° S 03:25:22 25° SE visible
